Regional Weather Roundup
Issued by NWS Charleston, SC

Current Version | Previous Version | Graphics & Text | Print | Product List | Glossary On
Versions: 1 2 3 4 5 6 7 8 9 10 11 12 13 14 15 16 17 18 19 20 21 22 23 24 25 26 27 28 29 30 31 32 33 34 35 36 37 38 39 40 41 42 43 44 45 46 47 48 49 50
186
ASUS42 KCHS 291128
RWRCHS

REGIONAL WEATHER ROUNDUP
NATIONAL WEATHER SERVICE CHARLESTON SC
700 AM EDT FRI JUL 29 2016

NOTE: "FAIR" INDICATES FEW OR NO CLOUDS BELOW 12,000 FEET WITH NO
SIGNIFICANT WEATHER AND/OR OBSTRUCTIONS TO VISIBILITY.

NOT ALL STATIONS ARE QUALITY CONTROLLED. USE DATA WITH CAUTION...
ESPECIALLY DEWPOINT OBSERVATIONS.

SCZ027-030-031-034>040-042>050-291200-
...SOUTHEAST SOUTH CAROLINA...

CITY           SKY/WX    TMP DP  RH WIND       PRES   REMARKS
N CHARLESTON   PTCLDY    80  70  71 W7        29.98R
WATERFRONT PRK   N/A     83  73  71 W5        29.95R
MOUNT PLEASANT FAIR      81  72  74 CALM      29.98R
JOHNS ISLAND   FAIR      82  72  69 W6        29.98R
PINOPOLIS        N/A     81  73  78 SW10      29.89R
MONCKS CORNER  FAIR      75  68  78 SW3       29.97S
SUMMERVILLE    FAIR      75  75 100 CALM      29.99
BEAUFORT MCAS  CLEAR     80  69  69 W10       29.99R
BEAUFORT ARPT  FAIR      81  70  69 W8        29.99R
HILTON HEAD IS CLEAR     81  72  74 W10       30.00R
WALTERBORO     SUNNY     79  70  73 W3        30.00R
ALLENDALE      FAIR      75  68  78 CALM      29.99R

...SOUTHERN MIDLANDS AND PEE DEE...

CITY           SKY/WX    TMP DP  RH WIND       PRES   REMARKS
GEORGETOWN     FAIR      77  73  88 SW7       29.97R
KINGSTREE      FAIR      77  70  78 SW3       29.95S
ORANGEBURG     CLEAR     77  69  76 SW6       29.97R
BARNWELL       NOT AVBL
AIKEN          FAIR      75  70  83 SW7       30.02R
MANNING        FAIR      77  70  78 SW5       29.96S
COLUMBIA       PTCLDY    78  69  73 SW8       29.94S
SUMTER         PTCLDY    78  69  73 SW12      29.92S
FLORENCE       CLEAR     78  69  73 SW7       29.93S
MYRTLE BEACH   CLEAR     81  70  69 W8        29.96R
N MYRTLE BEACH CLEAR     81  76  84 W5        29.93R

$$

GAZ063-065-086>088-099>101-113>116-118-119-134>141-150-291200-
...SOUTHEAST GEORGIA...

CITY           SKY/WX    TMP DP  RH WIND       PRES   REMARKS
SAVANNAH ARPT  PTCLDY    77  70  79 W8        30.01R
HUNTER AAF     CLEAR     78  74  88 SW6       29.99R
FORT STEWART   CLEAR     78  71  80 W7        29.99R
STATESBORO     CLEAR     78  73  82 W5        30.01R
SYLVANIA       NOT AVBL
CLAXTON        FAIR      75  73  94 CALM      30.02R FOG

...CSRA...CENTRAL AND FAR SOUTHEAST GEORGIA...

CITY           SKY/WX    TMP DP  RH WIND       PRES   REMARKS
THOMSON        NOT AVBL
AUGUSTA-BUSH   CLEAR     77  70  79 W6        29.98R
AUGUSTA-DANIEL CLEAR     79  70  74 SW3       29.99S
SWAINSBORO     FAIR      75  70  83 CALM      30.03R
VIDALIA        CLEAR     77  70  78 W3        30.03R
EASTMAN        FAIR      77  67  71 CALM      30.06R
HAZLEHURST     FAIR      78  76  94 CALM      30.03R
ALMA           CLEAR     74  72  93 CALM      30.03R
WAYCROSS       CLEAR     80  78  92 NW6       30.03S
JESUP          FAIR      77  77 100 CALM      30.03S
BAXLEY         FAIR      77  77 100 CALM      30.04R
BRUNSWICK      CLEAR     79  77  94 W6        30.03S
SAINT SIMONS   CLEAR     80  74  81 W7        30.02R

$$

SCZ027-028-034-036>038-045-046-048>050-GAZ119-141-291200-
...LAKE AND SUPPLEMENTAL COASTAL OBSERVATIONS...

STATION/POSITION TIME  TEMP    WIND        PRES    WAVE   SWELL
                       AIR SEA DIR/SP/G            HT/PER HT/PER/DIR
                 (UTC) (F)     (DEG/KT/KT) (MB)    (FT/S) (FT/S/D)
WINYAH BAY       1045   81     260/  7     1013.0S
LAKE MURRAY      1000   80     250/ 10/ 12 1013.2S
ACE BASIN NERRS  1000   81     240/  1     1015.0S
FORT PULASKI     1100   82 87  260/ 10/ 14 1016.4R
SAPELO ISLAND    1100   80     270/  6     1016.0S

$$

ANZ835-935-AMZ111-154-330-350-352-354-370-450-454-472-291200-
...C-MAN AND BUOY OBSERVATIONS...

STATION/POSITION TIME  TEMP    WIND        PRES    WAVE   SWELL
                       AIR SEA DIR/SP/G            HT/PER HT/PER/DIR
                 (UTC) (F)     (DEG/KT/KT) (MB)    (FT/S) (FT/S/D)
BUOY 41004       1050   85 86  250/ 17/ 19 1014.1R   4/ 5
BUOY 41008       1050   84 86  280/ 17/ 21 1015.5R   3/ 4
FOLLY BEACH CMAN 1100   81     270/  3/  6 1015.3R
CAPERS NEARSHORE 1108   84 84  280/ 12/ 16 1014.8R
FRIPP NEARSHORE  1108   84 87  290/ 14/ 19 1015.1R


STATION/POSITION TIME  TEMP    WIND        PRES    WAVE   SWELL
                       AIR SEA DIR/SP/G            HT/PER HT/PER/DIR
                 (UTC) (F)     (DEG/KT/KT) (MB)    (FT/S) (FT/S/D)
5E ST. MARYS GA  1101      85                N/A     2/ 3
FRYING PAN BUOY  1100   85 85  250/ 17/ 21 1013.5R
BUOY 41025       1050   84 85  240/ 16/ 19 1011.9R   4/ 6   2/320/12
CAPE LOOKOUT NC  1100   83     240/ 13/ 16 1012.2R
BUOY 41002       1050   83 84  240/  8/ 10 1016.0R   3/ 6   3/250/ 6
BUOY 41010       1020   85 86  240/ 12/ 14 1017.0R
ST AUGUSTINE FL  1100   78 84  250/  4/  5 1018.1R


$$




USA.gov is the U.S. government's official web portal to all federal, state and local government web resources and services.